COSMOS 2581

导读

COSMOS 2581(宇宙2581)是独联体(CIS,俄罗斯)发射的军事卫星,于2025年2月2日从普列谢茨克航天发射场,由联盟-2.1V火箭发射入轨。它和Kosmos 2582、2583一同进入距地面约585公里的近极轨道,任务目的未公开。入轨后该卫星系列表现出特殊活动,释放了未知物体,引发航天观测界和分析人士的广泛关注。

Basic Information
目录编号:
62902
目录名称:
COSMOS 2581
国际标识:
2025-026A
轨道中心:
EARTH
卫星名称:
COSMOS 2581
卫星全名:
COSMOS 2581
卫星状态:
在轨 (已飞行586 天)
发射日期:
2025-02-05 UTC
国别 :
俄罗斯(独联体) (CIS)
星等 :
--
This satellite is enrolled in the Space Conjunction Data Service (SCDS) and the current flight risk assessment level is: No High Risk
Orbit Information
数据来源 国际轨道数据
星历时间: 2026-09-14T02:23:13+0800
7小时前
查看轨道信息
半长轴: 6959.984km
偏心率: 0.0011342
轨道倾角: 81.999°
近地点辐角 119.730°
升交点赤经 344.101°
平近点角 240.506°
近地点: 573.952km
远地点: 589.742km
周期: 96.310分钟
每日圈数: 14.951694
Detailed Information
使用方式:
暂无
2D Orbit Map
3D Orbit Map
Orbit Altitude Analysis Chart
Orbit Inclination Analysis Chart
Orbit Comprehensive Analysis Chart
View Comprehensive Chart
Conjunction Data List
Event ID Objects TCA Miss Dist (km) Collision Risk Probability Collision Risk Index (CRI) Action
CDM_260914-065006-290206-990425
2026-09-14T
06:50:26+0000
0.744 km
远距离
7.218009E-5 中风险 0.72
CDM_260913-144203-121806-290224
2026-09-13T
14:42:07+0000
1.752 km
极远距离
2.62737E-6 低风险 0.43
CDM_260913-193506-290206-900025
OBJECT W (69000)
2026-09-13T
19:35:36+0000
2.801 km
极远距离
1.476805E-6 低风险 0.38
Miss Distance Evolution Trend with All Objects
Collision Probability Evolution Trend with All Objects